Year,Month,Day,Hour,Minute,Value (Times are PST for windspeed in km/hr)
2011,11,22,00,00,3.00
2011,11,22,00,01,2.50
2011,11,22,00,02,0.00
2011,11,22,00,03,0.10
2011,11,22,00,04,3.60
2011,11,22,00,05,1.70
2011,11,22,00,06,0.70
2011,11,22,00,07,0.20
2011,11,22,00,08,3.00
2011,11,22,00,09,1.90
2011,11,22,00,10,0.00
2011,11,22,00,11,0.00
2011,11,22,00,12,0.00
2011,11,22,00,13,0.00
2011,11,22,00,14,0.00
2011,11,22,00,15,0.00
2011,11,22,00,16,0.00
2011,11,22,00,17,0.00
2011,11,22,00,18,0.00
2011,11,22,00,19,0.00
2011,11,22,00,20,0.00
2011,11,22,00,21,0.00
2011,11,22,00,22,0.00
2011,11,22,00,23,1.00
2011,11,22,00,24,0.00
2011,11,22,00,25,2.20
2011,11,22,00,26,3.80
2011,11,22,00,27,0.90
2011,11,22,00,28,0.00
2011,11,22,00,29,0.00
2011,11,22,00,30,0.00
2011,11,22,00,31,0.00
2011,11,22,00,32,0.00
2011,11,22,00,33,0.00
2011,11,22,00,34,0.00
2011,11,22,00,35,0.00
2011,11,22,00,36,0.00
2011,11,22,00,37,0.00
2011,11,22,00,38,0.00
2011,11,22,00,39,0.00
2011,11,22,00,40,0.00
2011,11,22,00,41,1.50
2011,11,22,00,42,1.20
2011,11,22,00,43,1.50
2011,11,22,00,44,0.00
2011,11,22,00,45,0.00
2011,11,22,00,46,0.00
2011,11,22,00,47,0.00
2011,11,22,00,48,0.00
2011,11,22,00,49,0.80
2011,11,22,00,50,0.60
2011,11,22,00,51,0.00
2011,11,22,00,52,1.20
2011,11,22,00,53,0.60
2011,11,22,00,54,0.00
2011,11,22,00,55,0.00
2011,11,22,00,56,1.20
2011,11,22,00,57,1.00
2011,11,22,00,58,0.70
2011,11,22,00,59,0.10
2011,11,22,01,00,1.80
2011,11,22,01,01,0.30
2011,11,22,01,02,0.00
2011,11,22,01,03,0.00
2011,11,22,01,04,0.00
2011,11,22,01,05,0.00
2011,11,22,01,06,0.00
2011,11,22,01,07,0.20
2011,11,22,01,08,0.30
2011,11,22,01,09,0.00
2011,11,22,01,10,1.40
2011,11,22,01,11,3.70
2011,11,22,01,12,0.90
2011,11,22,01,13,3.30
2011,11,22,01,14,4.20
2011,11,22,01,15,1.00
2011,11,22,01,16,2.10
2011,11,22,01,17,0.40
2011,11,22,01,18,3.20
2011,11,22,01,19,1.00
2011,11,22,01,20,0.50
2011,11,22,01,21,2.40
2011,11,22,01,22,1.60
2011,11,22,01,23,1.90
2011,11,22,01,24,2.30
2011,11,22,01,25,3.00
2011,11,22,01,26,0.20
2011,11,22,01,27,0.00
2011,11,22,01,28,0.10
2011,11,22,01,29,0.20
2011,11,22,01,30,0.00
2011,11,22,01,31,0.00
2011,11,22,01,32,0.00
2011,11,22,01,33,0.60
2011,11,22,01,34,2.70
2011,11,22,01,35,0.00
2011,11,22,01,36,0.10
2011,11,22,01,37,2.60
2011,11,22,01,38,3.50
2011,11,22,01,39,5.20
2011,11,22,01,40,5.30
2011,11,22,01,41,0.60
2011,11,22,01,42,1.10
2011,11,22,01,43,0.00
2011,11,22,01,44,1.40
2011,11,22,01,45,2.30
2011,11,22,01,46,1.90
2011,11,22,01,47,5.30
2011,11,22,01,48,1.80
2011,11,22,01,49,0.90
2011,11,22,01,50,2.80
2011,11,22,01,51,1.30
2011,11,22,01,52,0.00
2011,11,22,01,53,3.60
2011,11,22,01,54,6.70
2011,11,22,01,55,7.20
2011,11,22,01,56,6.40
2011,11,22,01,57,7.80
2011,11,22,01,58,3.20
2011,11,22,01,59,6.70
2011,11,22,02,00,6.50
2011,11,22,02,01,3.60
2011,11,22,02,02,3.10
2011,11,22,02,03,0.50
2011,11,22,02,04,0.00
2011,11,22,02,05,0.00
2011,11,22,02,06,3.40
2011,11,22,02,07,1.10
2011,11,22,02,08,0.20
2011,11,22,02,09,0.90
2011,11,22,02,10,4.70
2011,11,22,02,11,3.50
2011,11,22,02,12,3.90
2011,11,22,02,13,3.50
2011,11,22,02,14,0.30
2011,11,22,02,15,1.10
2011,11,22,02,16,0.20
2011,11,22,02,17,1.30
2011,11,22,02,18,6.00
2011,11,22,02,19,3.00
2011,11,22,02,20,3.60
2011,11,22,02,21,3.60
2011,11,22,02,22,1.90
2011,11,22,02,23,0.00
2011,11,22,02,24,0.00
2011,11,22,02,25,1.40
2011,11,22,02,26,4.10
2011,11,22,02,27,3.90
2011,11,22,02,28,0.00
2011,11,22,02,29,3.10
2011,11,22,02,30,4.10
2011,11,22,02,31,3.80
2011,11,22,02,32,3.10
2011,11,22,02,33,1.70
2011,11,22,02,34,0.70
2011,11,22,02,35,0.20
2011,11,22,02,36,2.60
2011,11,22,02,37,4.00
2011,11,22,02,38,3.60
2011,11,22,02,39,1.50
2011,11,22,02,40,3.00
2011,11,22,02,41,2.50
2011,11,22,02,42,2.00
2011,11,22,02,43,5.30
2011,11,22,02,44,3.50
2011,11,22,02,45,2.30
2011,11,22,02,46,1.50
2011,11,22,02,47,4.90
2011,11,22,02,48,6.90
2011,11,22,02,49,1.40
2011,11,22,02,50,1.90
2011,11,22,02,51,6.00
2011,11,22,02,52,4.80
2011,11,22,02,53,6.60
2011,11,22,02,54,8.10
2011,11,22,02,55,10.00
2011,11,22,02,56,11.00
2011,11,22,02,57,11.90
2011,11,22,02,58,5.30
2011,11,22,02,59,4.90
2011,11,22,03,00,4.30
2011,11,22,03,01,2.10
2011,11,22,03,02,0.90
2011,11,22,03,03,4.30
2011,11,22,03,04,1.30
2011,11,22,03,05,4.30
2011,11,22,03,06,4.20
2011,11,22,03,07,1.60
2011,11,22,03,08,0.00
2011,11,22,03,09,0.30
2011,11,22,03,10,0.10
2011,11,22,03,11,0.00
2011,11,22,03,12,1.60
2011,11,22,03,13,4.20
2011,11,22,03,14,6.70
2011,11,22,03,15,4.70
2011,11,22,03,16,4.70
2011,11,22,03,17,5.10
2011,11,22,03,18,3.40
2011,11,22,03,19,9.80
2011,11,22,03,20,5.40
2011,11,22,03,21,4.30
2011,11,22,03,22,5.00
2011,11,22,03,23,3.90
2011,11,22,03,24,4.70
2011,11,22,03,25,4.80
2011,11,22,03,26,9.90
2011,11,22,03,27,8.40
2011,11,22,03,28,19.30
2011,11,22,03,29,21.20
2011,11,22,03,30,8.80
2011,11,22,03,31,17.50
2011,11,22,03,32,9.20
2011,11,22,03,33,5.50
2011,11,22,03,34,11.10
2011,11,22,03,35,21.90
2011,11,22,03,36,18.20
2011,11,22,03,37,20.70
2011,11,22,03,38,13.70
2011,11,22,03,39,10.30
2011,11,22,03,40,10.90
2011,11,22,03,41,18.50
2011,11,22,03,42,26.10
2011,11,22,03,43,21.00
2011,11,22,03,44,22.90
2011,11,22,03,45,15.10
2011,11,22,03,46,21.30
2011,11,22,03,47,27.90
2011,11,22,03,48,31.90
2011,11,22,03,49,19.10
2011,11,22,03,50,21.40
2011,11,22,03,51,20.50
2011,11,22,03,52,25.80
2011,11,22,03,53,23.40
2011,11,22,03,54,22.60
2011,11,22,03,55,33.80
2011,11,22,03,56,27.40
2011,11,22,03,57,26.70
2011,11,22,03,58,34.80
2011,11,22,03,59,20.40
2011,11,22,04,00,19.10
2011,11,22,04,01,27.80
2011,11,22,04,02,25.60
2011,11,22,04,03,26.70
2011,11,22,04,04,23.90
2011,11,22,04,05,23.60
2011,11,22,04,06,23.50
2011,11,22,04,07,14.80
2011,11,22,04,08,22.20
2011,11,22,04,09,16.10
2011,11,22,04,10,13.70
2011,11,22,04,11,12.20
2011,11,22,04,12,27.60
2011,11,22,04,13,21.00
2011,11,22,04,14,18.90
2011,11,22,04,15,27.40
2011,11,22,04,16,24.10
2011,11,22,04,17,15.50
2011,11,22,04,18,11.20
2011,11,22,04,19,15.70
2011,11,22,04,20,25.50
2011,11,22,04,21,22.70
2011,11,22,04,22,16.90
2011,11,22,04,23,29.10
2011,11,22,04,24,22.40
2011,11,22,04,25,24.40
2011,11,22,04,26,32.30
2011,11,22,04,27,19.40
2011,11,22,04,28,17.90
2011,11,22,04,29,24.90
2011,11,22,04,30,13.40
2011,11,22,04,31,17.10
2011,11,22,04,32,21.30
2011,11,22,04,33,25.10
2011,11,22,04,34,14.40
2011,11,22,04,35,16.40
2011,11,22,04,36,15.20
2011,11,22,04,37,15.20
2011,11,22,04,38,25.70
2011,11,22,04,39,20.00
2011,11,22,04,40,10.70
2011,11,22,04,41,15.20
2011,11,22,04,42,10.10
2011,11,22,04,43,10.80
2011,11,22,04,44,12.30
2011,11,22,04,45,9.50
2011,11,22,04,46,11.40
2011,11,22,04,47,18.50
2011,11,22,04,48,10.60
2011,11,22,04,49,10.80
2011,11,22,04,50,12.30
2011,11,22,04,51,22.20
2011,11,22,04,52,17.90
2011,11,22,04,53,17.90
2011,11,22,04,54,13.00
2011,11,22,04,55,11.90
2011,11,22,04,56,10.70
2011,11,22,04,57,21.40
2011,11,22,04,58,19.60
2011,11,22,04,59,12.90
2011,11,22,05,00,13.90
2011,11,22,05,01,19.80
2011,11,22,05,02,19.10
2011,11,22,05,03,16.30
2011,11,22,05,04,17.10
2011,11,22,05,05,10.50
2011,11,22,05,06,17.90
2011,11,22,05,07,12.90
2011,11,22,05,08,14.90
2011,11,22,05,09,14.90
2011,11,22,05,10,10.10
2011,11,22,05,11,11.90
2011,11,22,05,12,5.00
2011,11,22,05,13,7.60
2011,11,22,05,14,14.20
2011,11,22,05,15,13.00
2011,11,22,05,16,8.50
2011,11,22,05,17,6.20
2011,11,22,05,18,15.60
2011,11,22,05,19,7.90
2011,11,22,05,20,7.80
2011,11,22,05,21,6.80
2011,11,22,05,22,15.10
2011,11,22,05,23,8.00
2011,11,22,05,24,16.30
2011,11,22,05,25,14.60
2011,11,22,05,26,5.50
2011,11,22,05,27,4.90
2011,11,22,05,28,5.30
2011,11,22,05,29,5.50
2011,11,22,05,30,5.40
2011,11,22,05,31,3.40
2011,11,22,05,32,4.30
2011,11,22,05,33,6.80
2011,11,22,05,34,7.50
2011,11,22,05,35,4.70
2011,11,22,05,36,12.10
2011,11,22,05,37,8.20
2011,11,22,05,38,8.70
2011,11,22,05,39,2.20
2011,11,22,05,40,3.70
2011,11,22,05,41,7.00
2011,11,22,05,42,4.10
2011,11,22,05,43,5.00
2011,11,22,05,44,12.70
2011,11,22,05,45,12.50
2011,11,22,05,46,6.70
2011,11,22,05,47,9.00
2011,11,22,05,48,8.50
2011,11,22,05,49,10.40
2011,11,22,05,50,6.80
2011,11,22,05,51,8.10
2011,11,22,05,52,6.00
2011,11,22,05,53,5.90
2011,11,22,05,54,8.00
2011,11,22,05,55,4.40
2011,11,22,05,56,3.30
2011,11,22,05,57,9.30
2011,11,22,05,58,9.00
2011,11,22,05,59,10.70
2011,11,22,06,00,10.60
2011,11,22,06,01,6.00
2011,11,22,06,02,3.50
2011,11,22,06,03,7.40
2011,11,22,06,04,4.40
2011,11,22,06,05,6.80
2011,11,22,06,06,2.50
2011,11,22,06,07,1.80
2011,11,22,06,08,3.90
2011,11,22,06,09,0.90
2011,11,22,06,10,0.20
2011,11,22,06,11,3.20
2011,11,22,06,12,4.00
2011,11,22,06,13,4.20
2011,11,22,06,14,1.30
2011,11,22,06,15,2.90
2011,11,22,06,16,6.70
2011,11,22,06,17,8.50
2011,11,22,06,18,6.90
2011,11,22,06,19,7.50
2011,11,22,06,20,8.00
2011,11,22,06,21,6.20
2011,11,22,06,22,6.20
2011,11,22,06,23,4.30
2011,11,22,06,24,3.10
2011,11,22,06,25,7.00
2011,11,22,06,26,5.00
2011,11,22,06,27,7.10
2011,11,22,06,28,7.90
2011,11,22,06,29,8.10
2011,11,22,06,30,5.10
2011,11,22,06,31,6.20
2011,11,22,06,32,7.60
2011,11,22,06,33,9.30
2011,11,22,06,34,10.90
2011,11,22,06,35,12.30
2011,11,22,06,36,7.30
2011,11,22,06,37,9.70
2011,11,22,06,38,10.20
2011,11,22,06,39,8.90
2011,11,22,06,40,9.30
2011,11,22,06,41,9.70
2011,11,22,06,42,12.50
2011,11,22,06,43,7.50
2011,11,22,06,44,8.50
2011,11,22,06,45,8.80
2011,11,22,06,46,6.10
2011,11,22,06,47,13.10
2011,11,22,06,48,9.20
2011,11,22,06,49,6.50
2011,11,22,06,50,7.70
2011,11,22,06,51,5.50
2011,11,22,06,52,6.90
2011,11,22,06,53,5.40
2011,11,22,06,54,8.20
2011,11,22,06,55,8.40
2011,11,22,06,56,7.00
2011,11,22,06,57,7.00
2011,11,22,06,58,5.30
2011,11,22,06,59,4.80
2011,11,22,07,00,4.20
2011,11,22,07,01,4.80
2011,11,22,07,02,3.10
2011,11,22,07,03,6.60
2011,11,22,07,04,6.70
2011,11,22,07,05,6.40
2011,11,22,07,06,3.40
2011,11,22,07,07,2.00
2011,11,22,07,08,2.30
2011,11,22,07,09,2.70
2011,11,22,07,10,4.90
2011,11,22,07,11,0.60
2011,11,22,07,12,0.00
2011,11,22,07,13,0.00
2011,11,22,07,14,1.20
2011,11,22,07,15,0.00
2011,11,22,07,16,0.00
2011,11,22,07,17,0.00
2011,11,22,07,18,0.00
2011,11,22,07,19,0.00
2011,11,22,07,20,0.00
2011,11,22,07,21,0.00
2011,11,22,07,22,0.00
2011,11,22,07,23,2.40
2011,11,22,07,24,3.50
2011,11,22,07,25,2.90
2011,11,22,07,26,0.80
2011,11,22,07,27,3.70
2011,11,22,07,28,2.40
2011,11,22,07,29,5.80
2011,11,22,07,30,5.90
2011,11,22,07,31,3.70
2011,11,22,07,32,4.80
2011,11,22,07,33,1.80
2011,11,22,07,34,3.60
2011,11,22,07,35,3.60
2011,11,22,07,36,2.80
2011,11,22,07,37,5.50
2011,11,22,07,38,3.70
2011,11,22,07,39,7.00
2011,11,22,07,40,3.80
2011,11,22,07,41,11.70
2011,11,22,07,42,19.50
2011,11,22,07,43,12.80
2011,11,22,07,44,11.70
2011,11,22,07,45,9.50
2011,11,22,07,46,15.80
2011,11,22,07,47,9.70
2011,11,22,07,48,12.00
2011,11,22,07,49,16.70
2011,11,22,07,50,13.00
2011,11,22,07,51,17.30
2011,11,22,07,52,10.40
2011,11,22,07,53,9.60
2011,11,22,07,54,9.10
2011,11,22,07,55,10.10
2011,11,22,07,56,11.00
2011,11,22,07,57,5.20
2011,11,22,07,58,9.70
2011,11,22,07,59,10.90
2011,11,22,08,00,10.10
2011,11,22,08,01,6.90
2011,11,22,08,02,6.60
2011,11,22,08,03,8.80
2011,11,22,08,04,9.70
2011,11,22,08,05,8.90
2011,11,22,08,06,6.40
2011,11,22,08,07,7.40
2011,11,22,08,08,5.80
2011,11,22,08,09,7.70
2011,11,22,08,10,6.80
2011,11,22,08,11,3.90
2011,11,22,08,12,9.40
2011,11,22,08,13,9.60
2011,11,22,08,14,4.70
2011,11,22,08,15,10.30
2011,11,22,08,16,7.30
2011,11,22,08,17,8.20
2011,11,22,08,18,7.00
2011,11,22,08,19,8.80
2011,11,22,08,20,7.40
2011,11,22,08,21,6.80
2011,11,22,08,22,10.80
2011,11,22,08,23,7.70
2011,11,22,08,24,6.70
2011,11,22,08,25,6.60
2011,11,22,08,26,6.90
2011,11,22,08,27,8.50
2011,11,22,08,28,6.40
2011,11,22,08,29,6.60
2011,11,22,08,30,7.00
2011,11,22,08,31,6.80
2011,11,22,08,32,4.70
2011,11,22,08,33,4.70
2011,11,22,08,34,8.10
2011,11,22,08,35,6.20
2011,11,22,08,36,5.80
2011,11,22,08,37,5.70
2011,11,22,08,38,3.10
2011,11,22,08,39,2.60
2011,11,22,08,40,2.30
2011,11,22,08,41,5.10
2011,11,22,08,42,5.80
2011,11,22,08,43,9.30
2011,11,22,08,44,6.40
2011,11,22,08,45,4.50
2011,11,22,08,46,2.20
2011,11,22,08,47,6.80
2011,11,22,08,48,7.00
2011,11,22,08,49,8.90
2011,11,22,08,50,5.20
2011,11,22,08,51,6.20
2011,11,22,08,52,7.40
2011,11,22,08,53,8.20
2011,11,22,08,54,4.90
2011,11,22,08,55,7.30
2011,11,22,08,56,5.70
2011,11,22,08,57,4.70
2011,11,22,08,58,5.10
2011,11,22,08,59,5.00
2011,11,22,09,00,4.80
2011,11,22,09,01,4.90
2011,11,22,09,02,4.20
2011,11,22,09,03,5.30
2011,11,22,09,04,4.10
2011,11,22,09,05,3.80
2011,11,22,09,06,4.50
2011,11,22,09,07,6.40
2011,11,22,09,08,5.80
2011,11,22,09,09,4.70
2011,11,22,09,10,5.80
2011,11,22,09,11,5.40
2011,11,22,09,12,4.20
2011,11,22,09,13,4.80
2011,11,22,09,14,6.80
2011,11,22,09,15,4.60
2011,11,22,09,16,3.80
2011,11,22,09,17,4.80
2011,11,22,09,18,6.50
2011,11,22,09,19,3.70
2011,11,22,09,20,5.10
2011,11,22,09,21,4.70
2011,11,22,09,22,4.90
2011,11,22,09,23,4.80
2011,11,22,09,24,5.30
2011,11,22,09,25,5.60
2011,11,22,09,26,4.90
2011,11,22,09,27,5.30
2011,11,22,09,28,5.60
2011,11,22,09,29,4.30
2011,11,22,09,30,4.30
2011,11,22,09,31,5.50
2011,11,22,09,32,4.80
2011,11,22,09,33,6.40
2011,11,22,09,34,5.30
2011,11,22,09,35,5.40
2011,11,22,09,36,7.00
2011,11,22,09,37,7.80
2011,11,22,09,38,5.50
2011,11,22,09,39,6.10
2011,11,22,09,40,5.80
2011,11,22,09,41,4.00
2011,11,22,09,42,5.80
2011,11,22,09,43,6.40
2011,11,22,09,44,3.70
2011,11,22,09,45,4.40
2011,11,22,09,46,5.30
2011,11,22,09,47,5.50
2011,11,22,09,48,6.90
2011,11,22,09,49,4.50
2011,11,22,09,50,4.10
2011,11,22,09,51,4.70
2011,11,22,09,52,3.30
2011,11,22,09,53,4.10
2011,11,22,09,54,4.90
2011,11,22,09,55,5.00
2011,11,22,09,56,7.10
2011,11,22,09,57,3.40
2011,11,22,09,58,4.30
2011,11,22,09,59,6.00
2011,11,22,10,00,4.70
2011,11,22,10,01,5.10
2011,11,22,10,02,4.50
2011,11,22,10,03,2.80
2011,11,22,10,04,5.20
2011,11,22,10,05,3.50
2011,11,22,10,06,5.90
2011,11,22,10,07,5.00
2011,11,22,10,08,6.20
2011,11,22,10,09,5.10
2011,11,22,10,10,4.40
2011,11,22,10,11,5.30
2011,11,22,10,12,4.70
2011,11,22,10,13,4.80
2011,11,22,10,14,6.00
2011,11,22,10,15,6.90
2011,11,22,10,16,6.80
2011,11,22,10,17,4.90
2011,11,22,10,18,7.00
2011,11,22,10,19,6.00
2011,11,22,10,20,4.40
2011,11,22,10,21,7.60
2011,11,22,10,22,8.20
2011,11,22,10,23,3.40
2011,11,22,10,24,4.60
2011,11,22,10,25,5.80
2011,11,22,10,26,3.90
2011,11,22,10,27,1.40
2011,11,22,10,28,5.60
2011,11,22,10,29,3.70
2011,11,22,10,30,4.10
2011,11,22,10,31,3.10
2011,11,22,10,32,1.90
2011,11,22,10,33,2.60
2011,11,22,10,34,0.50
2011,11,22,10,35,0.00
2011,11,22,10,36,0.00
2011,11,22,10,37,0.00
2011,11,22,10,38,0.00
2011,11,22,10,39,0.00
2011,11,22,10,40,0.00
2011,11,22,10,41,0.00
2011,11,22,10,42,0.20
2011,11,22,10,43,0.00
2011,11,22,10,44,0.00
2011,11,22,10,45,0.00
2011,11,22,10,46,1.40
2011,11,22,10,47,4.70
2011,11,22,10,48,5.10
2011,11,22,10,49,4.40
2011,11,22,10,50,5.10
2011,11,22,10,51,2.20
2011,11,22,10,52,1.80
2011,11,22,10,53,1.40
2011,11,22,10,54,2.40
2011,11,22,10,55,3.20
2011,11,22,10,56,1.70
2011,11,22,10,57,0.20
2011,11,22,10,58,0.00
2011,11,22,10,59,0.00
2011,11,22,11,00,0.00
2011,11,22,11,01,0.00
2011,11,22,11,02,0.00
2011,11,22,11,03,1.30
2011,11,22,11,04,4.80
2011,11,22,11,05,3.70
2011,11,22,11,06,0.30
2011,11,22,11,07,2.60
2011,11,22,11,08,2.70
2011,11,22,11,09,0.00
2011,11,22,11,10,0.00
2011,11,22,11,11,0.00
2011,11,22,11,12,0.00
2011,11,22,11,13,0.00
2011,11,22,11,14,0.00
2011,11,22,11,15,0.00
2011,11,22,11,16,0.00
2011,11,22,11,17,0.00
2011,11,22,11,18,0.00
2011,11,22,11,19,0.00
2011,11,22,11,20,0.00
2011,11,22,11,21,0.00
2011,11,22,11,22,0.00
2011,11,22,11,23,0.00
2011,11,22,11,24,0.00
2011,11,22,11,25,1.00
2011,11,22,11,26,1.50
2011,11,22,11,27,0.00
2011,11,22,11,28,0.00
2011,11,22,11,29,0.60
2011,11,22,11,30,2.50
2011,11,22,11,31,3.80
2011,11,22,11,32,3.80
2011,11,22,11,33,2.70
2011,11,22,11,34,3.90
2011,11,22,11,35,4.70
2011,11,22,11,36,6.00
2011,11,22,11,37,5.80
2011,11,22,11,38,7.30
2011,11,22,11,39,8.20
2011,11,22,11,40,10.80
2011,11,22,11,41,7.40
2011,11,22,11,42,12.30
2011,11,22,11,43,14.60
2011,11,22,11,44,9.70
2011,11,22,11,45,9.90
2011,11,22,11,46,8.20
2011,11,22,11,47,7.60
2011,11,22,11,48,8.80
2011,11,22,11,49,6.60
2011,11,22,11,50,6.00
2011,11,22,11,51,6.40
2011,11,22,11,52,3.70
2011,11,22,11,53,5.60
2011,11,22,11,54,7.50
2011,11,22,11,55,5.00
2011,11,22,11,56,5.50
2011,11,22,11,57,4.70
2011,11,22,11,58,5.50
2011,11,22,11,59,6.60
2011,11,22,12,00,4.30
2011,11,22,12,01,7.30
2011,11,22,12,02,6.80
2011,11,22,12,03,6.50
2011,11,22,12,04,4.40
2011,11,22,12,05,4.70
2011,11,22,12,06,6.30
2011,11,22,12,07,5.50
2011,11,22,12,08,5.50
2011,11,22,12,09,5.60
2011,11,22,12,10,6.20
2011,11,22,12,11,4.90
2011,11,22,12,12,5.30
2011,11,22,12,13,5.60
2011,11,22,12,14,5.10
2011,11,22,12,15,5.30
2011,11,22,12,16,5.20
2011,11,22,12,17,4.00
2011,11,22,12,18,4.30
2011,11,22,12,19,4.60
2011,11,22,12,20,5.70
2011,11,22,12,21,4.70
2011,11,22,12,22,3.90
2011,11,22,12,23,3.40
2011,11,22,12,24,0.20
2011,11,22,12,25,1.90
2011,11,22,12,26,0.30
2011,11,22,12,27,0.00
2011,11,22,12,28,0.00
2011,11,22,12,29,0.00
2011,11,22,12,30,0.00
2011,11,22,12,31,0.00
2011,11,22,12,32,0.00
2011,11,22,12,33,0.00
2011,11,22,12,34,0.00
2011,11,22,12,35,0.00
2011,11,22,12,36,0.80
2011,11,22,12,37,2.40
2011,11,22,12,38,4.40
2011,11,22,12,39,4.40
2011,11,22,12,40,3.00
2011,11,22,12,41,3.80
2011,11,22,12,42,3.40
2011,11,22,12,43,3.30
2011,11,22,12,44,1.40
2011,11,22,12,45,0.00
2011,11,22,12,46,0.00
2011,11,22,12,47,0.00
2011,11,22,12,48,0.00
2011,11,22,12,49,0.00
2011,11,22,12,50,0.00
2011,11,22,12,51,0.00
2011,11,22,12,52,0.00
2011,11,22,12,53,0.00
2011,11,22,12,54,0.00
2011,11,22,12,55,0.00
2011,11,22,12,56,0.00
2011,11,22,12,57,0.00
2011,11,22,12,58,0.00
2011,11,22,12,59,0.00
2011,11,22,13,00,0.00
2011,11,22,13,01,0.00
2011,11,22,13,02,0.00
2011,11,22,13,03,0.00
2011,11,22,13,04,0.50
2011,11,22,13,05,2.40
2011,11,22,13,06,0.60
2011,11,22,13,07,0.00
2011,11,22,13,08,0.00
2011,11,22,13,09,0.00
2011,11,22,13,10,0.00
2011,11,22,13,11,0.60
2011,11,22,13,12,0.20
2011,11,22,13,13,0.80
2011,11,22,13,14,0.60
2011,11,22,13,15,0.10
2011,11,22,13,16,0.00
2011,11,22,13,17,0.00
2011,11,22,13,18,0.00
2011,11,22,13,19,0.00
2011,11,22,13,20,0.00
2011,11,22,13,21,0.00
2011,11,22,13,22,0.00
2011,11,22,13,23,1.40
2011,11,22,13,24,4.70
2011,11,22,13,25,3.50
2011,11,22,13,26,1.20
2011,11,22,13,27,0.40
2011,11,22,13,28,2.50
2011,11,22,13,29,3.20
2011,11,22,13,30,2.10
2011,11,22,13,31,4.80
2011,11,22,13,32,5.10
2011,11,22,13,33,6.00
2011,11,22,13,34,5.10
2011,11,22,13,35,6.20
2011,11,22,13,36,6.00
2011,11,22,13,37,7.50
2011,11,22,13,38,3.80
2011,11,22,13,39,4.80
2011,11,22,13,40,3.50
2011,11,22,13,41,1.30
2011,11,22,13,42,5.80
2011,11,22,13,43,0.80
2011,11,22,13,44,0.60
2011,11,22,13,45,1.50
2011,11,22,13,46,6.10
2011,11,22,13,47,4.10
2011,11,22,13,48,3.90
2011,11,22,13,49,1.90
2011,11,22,13,50,2.40
2011,11,22,13,51,2.30
2011,11,22,13,52,2.50
2011,11,22,13,53,3.10
2011,11,22,13,54,2.10
2011,11,22,13,55,2.10
2011,11,22,13,56,0.60
2011,11,22,13,57,1.10
2011,11,22,13,58,4.00
2011,11,22,13,59,4.10
2011,11,22,14,00,1.30
2011,11,22,14,01,0.80
2011,11,22,14,02,0.90
2011,11,22,14,03,2.50
2011,11,22,14,04,1.30
2011,11,22,14,05,0.00
2011,11,22,14,06,0.20
2011,11,22,14,07,0.60
2011,11,22,14,08,1.50
2011,11,22,14,09,0.00
2011,11,22,14,10,0.10
2011,11,22,14,11,1.30
2011,11,22,14,12,0.60
2011,11,22,14,13,0.00
2011,11,22,14,14,0.00
2011,11,22,14,15,0.00
2011,11,22,14,16,0.00
2011,11,22,14,17,0.00
2011,11,22,14,18,0.00
2011,11,22,14,19,0.00
2011,11,22,14,20,0.00
2011,11,22,14,21,1.20
2011,11,22,14,22,4.20
2011,11,22,14,23,5.50
2011,11,22,14,24,3.50
2011,11,22,14,25,2.70
2011,11,22,14,26,2.30
2011,11,22,14,27,3.40
2011,11,22,14,28,4.00
2011,11,22,14,29,1.00
2011,11,22,14,30,2.40
2011,11,22,14,31,5.70
2011,11,22,14,32,5.60
2011,11,22,14,33,5.60
2011,11,22,14,34,3.00
2011,11,22,14,35,0.50
2011,11,22,14,36,0.00
2011,11,22,14,37,0.00
2011,11,22,14,38,0.20
2011,11,22,14,39,2.70
2011,11,22,14,40,3.00
2011,11,22,14,41,2.50
2011,11,22,14,42,2.30
2011,11,22,14,43,4.10
2011,11,22,14,44,3.90
2011,11,22,14,45,3.10
2011,11,22,14,46,5.90
2011,11,22,14,47,3.50
2011,11,22,14,48,2.40
2011,11,22,14,49,3.10
2011,11,22,14,50,0.50
2011,11,22,14,51,1.90
2011,11,22,14,52,3.80
2011,11,22,14,53,0.70
2011,11,22,14,54,0.50
2011,11,22,14,55,0.00
2011,11,22,14,56,3.10
2011,11,22,14,57,1.30
2011,11,22,14,58,2.00
2011,11,22,14,59,2.40
2011,11,22,15,00,1.60
2011,11,22,15,01,0.00
2011,11,22,15,02,1.50
2011,11,22,15,03,0.80
2011,11,22,15,04,2.80
2011,11,22,15,05,1.30
2011,11,22,15,06,3.90
2011,11,22,15,07,3.90
2011,11,22,15,08,5.10
2011,11,22,15,09,2.60
2011,11,22,15,10,2.00
2011,11,22,15,11,0.00
2011,11,22,15,12,0.10
2011,11,22,15,13,0.00
2011,11,22,15,14,0.00
2011,11,22,15,15,1.00
2011,11,22,15,16,3.40
2011,11,22,15,17,3.80
2011,11,22,15,18,1.30
2011,11,22,15,19,0.10
2011,11,22,15,20,1.80
2011,11,22,15,21,3.50
2011,11,22,15,22,2.60
2011,11,22,15,23,3.90
2011,11,22,15,24,2.20
2011,11,22,15,25,3.20
2011,11,22,15,26,0.60
2011,11,22,15,27,0.00
2011,11,22,15,28,1.90
2011,11,22,15,29,1.00
2011,11,22,15,30,0.70
2011,11,22,15,31,2.00
2011,11,22,15,32,3.80
2011,11,22,15,33,0.90
2011,11,22,15,34,2.50
2011,11,22,15,35,2.20
2011,11,22,15,36,1.40
2011,11,22,15,37,2.80
2011,11,22,15,38,1.80
2011,11,22,15,39,2.90
2011,11,22,15,40,3.10
2011,11,22,15,41,2.50
2011,11,22,15,42,2.70
2011,11,22,15,43,1.90
2011,11,22,15,44,1.10
2011,11,22,15,45,2.00
2011,11,22,15,46,2.10
2011,11,22,15,47,2.60
2011,11,22,15,48,4.20
2011,11,22,15,49,3.90
2011,11,22,15,50,1.20
2011,11,22,15,51,2.20
2011,11,22,15,52,0.20
2011,11,22,15,53,3.30
2011,11,22,15,54,0.60
2011,11,22,15,55,0.10
2011,11,22,15,56,0.00
2011,11,22,15,57,0.00
2011,11,22,15,58,0.00
2011,11,22,15,59,0.00
2011,11,22,16,00,1.00
2011,11,22,16,01,1.40
2011,11,22,16,02,1.80
2011,11,22,16,03,0.40
2011,11,22,16,04,1.80
2011,11,22,16,05,3.00
2011,11,22,16,06,1.40
2011,11,22,16,07,1.90
2011,11,22,16,08,0.50
2011,11,22,16,09,3.10
2011,11,22,16,10,0.50
2011,11,22,16,11,0.30
2011,11,22,16,12,1.20
2011,11,22,16,13,0.00
2011,11,22,16,14,0.00
2011,11,22,16,15,0.00
2011,11,22,16,16,0.00
2011,11,22,16,17,0.00
2011,11,22,16,18,0.00
2011,11,22,16,19,0.00
2011,11,22,16,20,0.00
2011,11,22,16,21,0.00
2011,11,22,16,22,0.00
2011,11,22,16,23,0.00
2011,11,22,16,24,0.00
2011,11,22,16,25,0.00
2011,11,22,16,26,0.00
2011,11,22,16,27,0.00
2011,11,22,16,28,0.00
2011,11,22,16,29,0.00
2011,11,22,16,30,0.00
2011,11,22,16,31,0.00
2011,11,22,16,32,0.00
2011,11,22,16,33,0.10
2011,11,22,16,34,1.60
2011,11,22,16,35,0.00
2011,11,22,16,36,0.80
2011,11,22,16,37,2.70
2011,11,22,16,38,3.90
2011,11,22,16,39,6.00
2011,11,22,16,40,1.70
2011,11,22,16,41,5.20
2011,11,22,16,42,4.90
2011,11,22,16,43,5.70
2011,11,22,16,44,6.40
2011,11,22,16,45,3.00
2011,11,22,16,46,2.60
2011,11,22,16,47,3.30
2011,11,22,16,48,4.70
2011,11,22,16,49,8.40
2011,11,22,16,50,4.80
2011,11,22,16,51,3.90
2011,11,22,16,52,7.00
2011,11,22,16,53,11.00
2011,11,22,16,54,8.90
2011,11,22,16,55,5.50
2011,11,22,16,56,6.40
2011,11,22,16,57,6.00
2011,11,22,16,58,4.20
2011,11,22,16,59,6.40
2011,11,22,17,00,2.60
2011,11,22,17,01,4.10
2011,11,22,17,02,6.60
2011,11,22,17,03,7.00
2011,11,22,17,04,4.20
2011,11,22,17,05,6.80
2011,11,22,17,06,6.00
2011,11,22,17,07,5.00
2011,11,22,17,08,7.20
2011,11,22,17,09,10.30
2011,11,22,17,10,8.80
2011,11,22,17,11,6.40
2011,11,22,17,12,8.70
2011,11,22,17,13,9.40
2011,11,22,17,14,8.10
2011,11,22,17,15,8.10
2011,11,22,17,16,8.70
2011,11,22,17,17,6.10
2011,11,22,17,18,11.20
2011,11,22,17,19,7.50
2011,11,22,17,20,8.00
2011,11,22,17,21,7.80
2011,11,22,17,22,9.10
2011,11,22,17,23,13.40
2011,11,22,17,24,8.90
2011,11,22,17,25,11.10
2011,11,22,17,26,9.70
2011,11,22,17,27,14.20
2011,11,22,17,28,11.80
2011,11,22,17,29,14.70
2011,11,22,17,30,12.80
2011,11,22,17,31,15.70
2011,11,22,17,32,13.10
2011,11,22,17,33,14.20
2011,11,22,17,34,11.70
2011,11,22,17,35,7.40
2011,11,22,17,36,8.50
2011,11,22,17,37,6.40
2011,11,22,17,38,8.40
2011,11,22,17,39,4.60
2011,11,22,17,40,4.40
2011,11,22,17,41,6.80
2011,11,22,17,42,10.70
2011,11,22,17,43,14.30
2011,11,22,17,44,15.80
2011,11,22,17,45,14.20
2011,11,22,17,46,13.40
2011,11,22,17,47,13.80
2011,11,22,17,48,15.50
2011,11,22,17,49,10.50
2011,11,22,17,50,10.90
2011,11,22,17,51,11.50
2011,11,22,17,52,10.70
2011,11,22,17,53,15.40
2011,11,22,17,54,11.00
2011,11,22,17,55,8.00
2011,11,22,17,56,14.40
2011,11,22,17,57,12.80
2011,11,22,17,58,7.20
2011,11,22,17,59,8.90